Stations météo

réclame
Mon MeteoGroup
Jerez de los Caballeros, Espagne (8337): Température de l'air & dewpoint: 13.06.2018 06:00:00 - 19.06.2018 06:00:00 (CEST)Jerez de los Caballeros, Espagne (8337): Vitesse du vent & gusts: 13.06.2018 06:00:00 - 19.06.2018 06:00:00 (CEST)Jerez de los Caballeros, Espagne (8337): Direction du vent: 13.06.2018 06:00:00 - 19.06.2018 06:00:00 (CEST)Jerez de los Caballeros, Espagne (8337): reduced air pressure: 13.06.2018 06:00:00 - 19.06.2018 06:00:00 (CEST)Jerez de los Caballeros, Espagne (8337): visibility: 13.06.2018 06:00:00 - 19.06.2018 06:00:00 (CEST)Jerez de los Caballeros, Espagne (8337): Ensoleillement: 13.06.2018 06:00:00 - 19.06.2018 06:00:00 (CEST)Jerez de los Caballeros, Espagne (8337): Quantités de précipitations: 13.06.2018 06:00:00 - 19.06.2018 06:00:00 (CEST)
Date & Time tt [°C] td [°C] ff [km/h] ff [knt] fx [km/h] fx [knt] dd ppp [hPa] vv [km] sd [min] rr [mm]
19.06.2018 06:00:00 - - - - - - - - - - -
19.06.2018 05:00:00 19,6 12,8 5 3 7 4 E 1017,2 20 0 0,0
19.06.2018 04:00:00 21,4 11,1 5 3 11 6 W 1017,0 20 0 0,0
19.06.2018 03:00:00 21,2 11,8 7 4 16 8 W 1017,2 20 0 0,0
19.06.2018 02:00:00 22,2 12,1 14 8 23 12 W 1017,2 20 0 -
19.06.2018 01:00:00 - - - - - - - - - - -
19.06.2018 00:00:00 25,6 12,1 23 12 29 16 WSW 1017,1 20 0 0,0
18.06.2018 23:00:00 26,9 12,5 16 9 32 18 WSW 1016,4 20 0 0,0
18.06.2018 22:00:00 29,7 12,1 22 12 32 17 WSW 1015,4 20 4 0,0
18.06.2018 21:00:00 32,7 6,8 23 12 41 22 NNE 1013,7 20 40 0,0
18.06.2018 20:00:00 34,7 6,8 27 14 38 21 NNE 1013,0 20 60 -
18.06.2018 19:00:00 35,5 7,6 20 11 32 17 NNE 1013,0 20 38 0,0
18.06.2018 18:00:00 35,4 7,4 19 11 26 14 E 1013,4 20 23 0,0
18.06.2018 17:00:00 37,0 8,0 8 5 21 11 E 1013,8 20 28 0,0
18.06.2018 16:00:00 37,5 7,4 14 7 28 15 ENE 1014,2 20 60 0,0
18.06.2018 15:00:00 36,3 8,3 16 9 33 18 ENE 1014,8 20 60 0,0
18.06.2018 14:00:00 35,1 8,8 21 11 37 20 ENE 1015,4 20 60 -
18.06.2018 13:00:00 34,7 9,2 16 9 29 16 ENE 1015,8 20 60 0,0
18.06.2018 12:00:00 33,0 8,4 14 7 28 15 E 1016,5 17 60 0,0
18.06.2018 11:00:00 30,3 9,2 23 12 29 16 ENE 1016,8 20 60 0,0
18.06.2018 10:00:00 27,6 10,8 17 9 29 16 E 1017,1 20 60 0,0
18.06.2018 09:00:00 25,6 9,8 13 7 26 14 E 1017,1 20 60 0,0
18.06.2018 08:00:00 22,4 11,4 19 10 24 13 E 1017,3 20 17 -
18.06.2018 07:00:00 23,7 10,0 18 10 29 16 E 1017,1 20 0 0,0
18.06.2018 06:00:00 23,3 10,0 15 8 23 12 E 1016,9 20 0 0,0
18.06.2018 05:00:00 22,9 10,3 11 6 16 8 E 1017,0 20 0 0,0
18.06.2018 04:00:00 24,8 9,6 10 6 18 10 E 1016,8 20 0 0,0
18.06.2018 03:00:00 26,5 8,0 12 7 20 11 E 1016,9 20 0 0,0
18.06.2018 02:00:00 28,0 7,8 18 10 49 26 NNE 1016,8 20 0 -
18.06.2018 01:00:00 29,6 6,8 36 19 49 26 NNE 1015,9 20 0 0,0
18.06.2018 00:00:00 29,2 7,7 22 12 32 18 NNE 1016,8 20 0 0,0
17.06.2018 23:00:00 29,3 10,4 6 3 23 12 NE 1016,5 20 0 0,0
17.06.2018 22:00:00 31,8 8,8 18 10 22 12 NNW 1015,2 20 22 0,0
17.06.2018 21:00:00 33,5 10,8 11 6 17 9 NW 1014,7 20 60 0,0
17.06.2018 20:00:00 35,1 8,8 11 6 21 11 WNW 1014,4 20 60 -
17.06.2018 19:00:00 35,9 8,7 10 5 25 14 N 1014,2 20 60 0,0
17.06.2018 18:00:00 35,5 8,4 10 5 20 11 NNW 1014,6 20 49 0,0
17.06.2018 17:00:00 36,4 10,5 6 3 17 9 SSW 1014,5 20 36 0,0
17.06.2018 16:00:00 36,6 10,8 4 2 18 10 S 1014,7 20 57 0,0
17.06.2018 15:00:00 35,2 12,2 11 6 23 12 N 1015,1 20 59 0,0
17.06.2018 14:00:00 34,6 14,5 11 6 21 12 W 1015,3 20 60 -
17.06.2018 13:00:00 32,9 14,0 8 4 15 8 WSW 1015,7 20 60 0,0
17.06.2018 12:00:00 31,3 12,1 4 2 10 5 SSE 1016,0 20 60 0,0
17.06.2018 11:00:00 28,0 13,6 5 3 10 5 E 1016,3 20 60 0,0
17.06.2018 10:00:00 24,3 15,8 5 3 8 5 ENE 1016,7 16 60 0,0
17.06.2018 09:00:00 20,9 15,3 3 1 7 4 WNW 1016,9 20 60 0,0
17.06.2018 08:00:00 18,3 14,8 4 2 9 5 SE 1016,7 20 36 -
17.06.2018 07:00:00 18,0 14,3 7 4 8 4 E 1016,3 20 0 0,0
17.06.2018 06:00:00 19,4 14,0 3 2 4 2 SE 1015,8 20 0 0,0
17.06.2018 05:00:00 19,7 14,0 3 2 8 5 WSW 1015,6 20 0 0,0
17.06.2018 04:00:00 20,2 14,1 3 1 10 5 S 1015,6 20 0 0,0
17.06.2018 03:00:00 21,5 14,4 8 4 10 6 SSW 1015,3 20 0 0,0
17.06.2018 02:00:00 22,9 14,7 6 4 9 5 SW 1014,9 20 0 -
17.06.2018 01:00:00 23,9 14,3 2 1 11 6 ENE 1014,7 20 0 0,0
17.06.2018 00:00:00 25,0 14,1 6 3 18 10 ESE 1014,1 20 0 0,0
16.06.2018 23:00:00 26,6 14,3 13 7 31 17 WNW 1013,2 20 0 0,0
16.06.2018 22:00:00 29,2 9,3 11 6 13 7 NW 1012,1 20 27 0,0
16.06.2018 21:00:00 32,0 8,9 6 3 20 11 NW 1011,3 20 60 0,0
16.06.2018 20:00:00 33,2 8,7 13 7 22 12 W 1011,2 20 60 -
16.06.2018 19:00:00 32,8 9,6 13 7 27 14 NW 1011,3 20 60 0,0
16.06.2018 18:00:00 34,2 12,0 13 7 26 14 WSW 1011,0 20 60 0,0
16.06.2018 17:00:00 34,3 11,4 12 6 23 13 WSW 1011,2 20 60 0,0
16.06.2018 16:00:00 32,1 11,3 11 6 20 11 WNW 1012,0 20 60 0,0
16.06.2018 15:00:00 32,2 13,0 11 6 21 11 WSW 1012,1 20 60 0,0
16.06.2018 14:00:00 31,2 13,1 6 3 17 9 SSW 1012,6 20 60 -
16.06.2018 13:00:00 28,7 15,3 6 4 15 8 SSW 1013,3 20 60 0,0
16.06.2018 12:00:00 24,9 14,6 4 2 10 5 SSW 1014,0 20 60 0,0
16.06.2018 11:00:00 21,4 12,7 3 2 9 5 SW 1014,6 20 60 0,0
16.06.2018 10:00:00 18,0 12,8 3 2 8 4 SW 1015,2 20 60 0,0
16.06.2018 09:00:00 15,6 12,1 2 1 8 4 WSW 1015,1 19 60 0,0
16.06.2018 08:00:00 13,3 11,3 4 2 6 3 E 1015,2 10 36 -
16.06.2018 07:00:00 12,8 11,0 6 3 9 5 SW 1015,0 10 0 0,0
16.06.2018 06:00:00 13,3 11,2 8 4 9 5 SW 1014,6 15 0 0,0
16.06.2018 05:00:00 13,7 11,2 6 3 14 8 SW 1014,6 20 0 0,0
16.06.2018 04:00:00 14,4 11,3 10 6 18 10 W 1014,8 20 0 0,0
16.06.2018 03:00:00 15,2 11,2 9 5 14 8 WSW 1015,0 20 0 0,0
16.06.2018 02:00:00 16,7 11,2 10 6 15 8 WSW 1015,1 20 0 -
16.06.2018 01:00:00 18,7 11,0 10 5 21 12 WSW 1014,8 20 0 0,0
16.06.2018 00:00:00 20,5 10,6 11 6 31 17 SW 1014,3 20 0 0,0
15.06.2018 23:00:00 22,6 9,4 20 11 37 20 W 1013,3 20 0 0,0
15.06.2018 22:00:00 25,1 10,5 22 12 38 21 W 1012,2 20 37 0,0
15.06.2018 21:00:00 29,2 13,1 23 12 32 18 W 1011,2 20 60 0,0
15.06.2018 20:00:00 31,1 11,4 21 12 31 17 W 1011,0 20 60 -
15.06.2018 19:00:00 32,8 10,2 18 10 31 17 W 1010,6 20 60 0,0
15.06.2018 18:00:00 32,9 9,0 12 7 35 19 W 1011,3 20 60 0,0
15.06.2018 17:00:00 33,8 5,3 9 5 26 14 WSW 1011,6 20 60 0,0
15.06.2018 16:00:00 33,2 7,3 11 6 25 13 SSW 1012,2 20 60 0,0
15.06.2018 15:00:00 31,6 9,2 10 5 25 14 WNW 1012,9 20 60 0,0
15.06.2018 14:00:00 31,4 8,4 10 6 21 11 SSW 1013,6 20 60 -
15.06.2018 13:00:00 30,4 9,8 6 3 13 7 SW 1014,0 20 60 0,0
15.06.2018 12:00:00 27,6 8,9 4 2 10 5 SSW 1014,6 20 60 0,0
15.06.2018 11:00:00 24,9 12,4 3 2 8 4 SSW 1015,2 20 60 0,0
15.06.2018 10:00:00 20,9 13,1 4 2 10 5 ENE 1015,7 20 60 0,0
15.06.2018 09:00:00 17,8 12,8 6 3 9 5 E 1016,0 19 60 0,0
15.06.2018 08:00:00 15,9 12,2 4 2 8 5 ESE 1015,9 17 46 -
15.06.2018 07:00:00 15,5 12,6 3 2 10 5 WNW 1015,8 20 0 0,0
15.06.2018 06:00:00 16,7 12,4 4 2 8 4 SE 1015,3 20 0 0,0
15.06.2018 05:00:00 17,0 12,7 4 2 8 4 SW 1015,2 20 0 0,0
15.06.2018 04:00:00 18,9 12,8 5 3 8 4 SW 1014,9 20 0 0,0
15.06.2018 03:00:00 20,2 12,6 5 3 11 6 SSE 1015,1 20 0 0,0
15.06.2018 02:00:00 20,6 12,3 8 4 16 8 S 1015,4 20 0 -
15.06.2018 01:00:00 21,8 12,6 2 1 11 6 WSW 1015,2 20 0 0,0
15.06.2018 00:00:00 22,8 12,4 7 4 32 17 N 1015,0 20 0 0,0
14.06.2018 23:00:00 24,4 5,6 16 8 23 12 NW 1014,4 20 0 0,0
14.06.2018 22:00:00 26,9 5,1 12 7 18 10 NNW 1013,7 20 32 0,0
14.06.2018 21:00:00 28,5 6,5 11 6 21 11 N 1013,3 20 60 0,0
14.06.2018 20:00:00 29,6 5,6 9 5 23 12 N 1012,9 20 58 -
14.06.2018 19:00:00 30,0 5,9 12 6 25 14 N 1012,7 20 60 0,0
14.06.2018 18:00:00 29,6 5,6 13 7 27 15 NNW 1013,1 20 60 0,0
14.06.2018 17:00:00 29,3 6,7 14 8 32 18 NNW 1013,4 20 60 0,0
14.06.2018 16:00:00 29,3 7,8 19 10 29 16 NE 1013,7 20 60 0,0
14.06.2018 15:00:00 28,8 7,4 9 5 30 16 NE 1014,0 20 60 0,0
14.06.2018 14:00:00 28,2 8,9 11 6 22 12 NNW 1014,5 20 60 -
14.06.2018 13:00:00 26,5 9,3 4 2 14 8 N 1015,2 20 60 0,0
14.06.2018 12:00:00 24,8 12,1 6 4 13 7 SSW 1015,5 20 60 0,0
14.06.2018 11:00:00 22,0 12,5 6 3 10 5 SSW 1015,8 20 60 0,0
14.06.2018 10:00:00 20,0 13,5 3 1 9 5 SE 1016,1 20 60 0,0
14.06.2018 09:00:00 16,2 12,1 4 2 10 5 SW 1016,6 13 60 0,0
14.06.2018 08:00:00 14,0 11,6 5 3 9 5 SSW 1016,8 12 14 -
14.06.2018 07:00:00 14,0 11,6 4 2 8 5 SW 1016,8 18 0 0,0
14.06.2018 06:00:00 14,6 11,6 6 3 10 5 WSW 1016,5 19 0 0,0
14.06.2018 05:00:00 15,1 11,7 10 5 13 7 WSW 1017,0 19 0 0,0
14.06.2018 04:00:00 16,5 11,9 9 5 14 8 W 1017,0 20 0 0,0
14.06.2018 03:00:00 17,5 12,0 8 4 11 6 W 1017,0 20 0 0,0
14.06.2018 02:00:00 18,1 11,9 5 3 8 4 SW 1017,3 20 0 -
14.06.2018 01:00:00 19,4 11,7 3 2 14 7 SW 1017,2 20 0 0,0
14.06.2018 00:00:00 21,2 11,2 6 3 23 12 W 1016,6 20 0 0,0
13.06.2018 23:00:00 21,9 9,8 17 9 24 13 WNW 1015,9 20 0 0,0
13.06.2018 22:00:00 23,7 10,0 16 9 22 12 WNW 1015,3 20 22 0,0
13.06.2018 21:00:00 26,3 9,2 14 8 24 13 W 1014,9 20 60 0,0
13.06.2018 20:00:00 28,1 9,8 14 8 28 15 W 1014,6 20 60 -
13.06.2018 19:00:00 28,6 6,1 17 9 27 15 W 1014,6 20 60 0,0
13.06.2018 18:00:00 28,7 7,8 18 10 30 16 W 1015,2 20 60 0,0
13.06.2018 17:00:00 27,8 7,6 18 10 35 19 WNW 1015,5 20 60 0,0
13.06.2018 16:00:00 27,7 8,0 16 9 34 19 W 1015,9 20 60 0,0
13.06.2018 15:00:00 27,8 10,5 19 10 30 16 WSW 1016,3 20 52 0,0
13.06.2018 14:00:00 27,4 12,2 9 5 24 13 WSW 1016,8 20 59 -
13.06.2018 13:00:00 24,9 14,3 8 5 14 8 SSW 1017,6 20 60 0,0
13.06.2018 12:00:00 21,5 14,1 5 3 10 5 SW 1018,5 20 60 0,0
13.06.2018 11:00:00 16,9 13,1 3 2 9 5 W 1019,3 11 43 0,0
13.06.2018 10:00:00 13,9 11,9 3 2 9 5 SW 1019,9 7 0 0,0
13.06.2018 09:00:00 12,7 11,2 5 3 11 6 W 1020,1 2,1 0 0,0
13.06.2018 08:00:00 12,3 10,9 8 5 12 7 WSW 1020,2 3,6 0 -
13.06.2018 07:00:00 12,2 10,6 6 4 14 8 WSW 1019,9 3,6 0 0,0
13.06.2018 06:00:00 12,4 10,8 9 5 14 8 WSW 1019,8 4,8 0 0,0

tt = Température de l'air
td = dewpoint
ff = Vitesse du vent
fx = gusts
dd = Direction du vent
ppp = reduced air pressure
vv = visibility
sd = Ensoleillement
rr = Quantités de précipitations

stations d'obs. à proximité